Hays, KS

2:26 PM CDT on June 22, 2017 (GMT -0500)
Hays Regional

Weather History for KHYS - January, 2014

Change the Weather History Date:

Saturday, January 11, 2014

  Actual Average Record
Temperature  
Mean Temperature 42 °F -  
Max Temperature 55 °F 40 °F 69 °F (1999)
Min Temperature 28 °F 16 °F -5 °F (2011)
Degree Days  
Heating Degree Days 24    
Moisture  
Dew Point 23 °F    
Average Humidity 55    
Maximum Humidity 86    
Minimum Humidity 26    
Precipitation  
Precipitation 0.00 in - - ()
Sea Level Pressure  
Sea Level Pressure 29.86 in    
Wind  
Wind Speed 12 mph (West)    
Max Wind Speed 20 mph    
Max Gust Speed 25 mph    
Visibility 10 miles    
Events      
Averages and records for this station are not official NWS values.
T = Trace of Precipitation, MM = Missing Value Source: NWS Daily Summary

Daily Weather History Graph

Daily Weather History Graph

Search for Another Location

Airport or City:

Trip Planner

Search our weather history database for the weather conditions in past years. The results will help you decide how hot, cold, wet, or windy it might be!

Date:

Astronomy

Jan. 11, 2014 Rise Set
Actual Time 7:55 AM CST 5:35 PM CST
Civil Twilight 7:25 AM CST 6:04 PM CST
Nautical Twilight 6:52 AM CST 6:37 PM CST
Astronomical Twilight 6:20 AM CST 7:09 PM CST
Moon 2:20 PM CST (1/11) 4:01 AM CST (1/11)
Length of Visible Light 10h 38m
Length of Day
9h 40m
Waxing Gibbous, 83% of the Moon is Illuminated
Jan 11
Waxing Gibbous
Jan 15
Full
Jan 23
Last Quarter
Jan 30
New
Feb 6
First Quarter

Hourly Weather History & Observations

Time (CST) Temp. Windchill Dew Point Humidity Pressure Visibility Wind Dir Wind Speed Gust Speed Precip Events Conditions
12:15 AM 30.2 °F 21.3 °F 26.6 °F 86% 29.76 in 10.0 mi WNW 10.4 mph - N/A   Clear
12:35 AM 28.4 °F 19.7 °F 24.8 °F 86% 29.76 in 10.0 mi West 9.2 mph - N/A   Clear
12:55 AM 30.2 °F 19.8 °F 24.8 °F 80% 29.76 in 10.0 mi WNW 13.8 mph - N/A   Clear
1:15 AM 30.2 °F 19.8 °F 24.8 °F 80% 29.77 in 10.0 mi WNW 13.8 mph - N/A   Clear
1:35 AM 30.2 °F 20.2 °F 21.2 °F 69% 29.77 in 10.0 mi WNW 12.7 mph - N/A   Clear
1:55 AM 30.2 °F 20.2 °F 21.2 °F 69% 29.78 in 10.0 mi WNW 12.7 mph - N/A   Clear
2:15 AM 30.2 °F 20.2 °F 21.2 °F 69% 29.79 in 10.0 mi WNW 12.7 mph - N/A   Clear
2:35 AM 30.2 °F 19.8 °F 21.2 °F 69% 29.79 in 10.0 mi WNW 13.8 mph - N/A   Clear
2:55 AM 30.2 °F 20.8 °F 21.2 °F 69% 29.79 in 10.0 mi WNW 11.5 mph - N/A   Partly Cloudy
3:15 AM 30.2 °F 20.8 °F 21.2 °F 69% 29.80 in 10.0 mi WNW 11.5 mph - N/A   Clear
3:35 AM 30.2 °F 20.8 °F 21.2 °F 69% 29.81 in 10.0 mi WNW 11.5 mph - N/A   Clear
3:55 AM 30.2 °F 21.3 °F 21.2 °F 69% 29.81 in 10.0 mi WNW 10.4 mph - N/A   Clear
4:15 AM 30.2 °F 20.2 °F 23.0 °F 75% 29.82 in 10.0 mi WNW 12.7 mph - N/A   Clear
4:35 AM 30.2 °F 19.3 °F 23.0 °F 75% 29.82 in 10.0 mi WNW 15.0 mph - N/A   Clear
4:55 AM 30.2 °F 19.8 °F 23.0 °F 75% 29.83 in 10.0 mi WNW 13.8 mph - N/A   Clear
5:15 AM 32.0 °F 22.1 °F 23.0 °F 69% 29.83 in 10.0 mi WNW 13.8 mph - N/A   Clear
5:35 AM 32.0 °F 22.5 °F 24.8 °F 75% 29.84 in 10.0 mi WNW 12.7 mph - N/A   Clear
5:55 AM 33.8 °F 23.9 °F 24.8 °F 70% 29.85 in 10.0 mi WNW 15.0 mph - N/A   Clear
6:15 AM 35.6 °F 25.2 °F 24.8 °F 65% 29.85 in 10.0 mi NW 18.4 mph - N/A   Clear
6:35 AM 35.6 °F 25.2 °F 24.8 °F 65% 29.86 in 10.0 mi WNW 18.4 mph - N/A   Clear
6:55 AM 35.6 °F 25.5 °F 24.8 °F 65% 29.87 in 10.0 mi WNW 17.3 mph - N/A   Clear
7:15 AM 35.6 °F 25.9 °F 24.8 °F 65% 29.88 in 10.0 mi WNW 16.1 mph - N/A   Clear
7:35 AM 35.6 °F 26.2 °F 24.8 °F 65% 29.88 in 10.0 mi WNW 15.0 mph - N/A   Clear
7:55 AM 33.8 °F 23.9 °F 24.8 °F 70% 29.89 in 10.0 mi WNW 15.0 mph - N/A   Clear
8:15 AM 33.8 °F 24.3 °F 24.8 °F 70% 29.90 in 10.0 mi WNW 13.8 mph - N/A   Partly Cloudy
8:35 AM 35.6 °F 26.6 °F 24.8 °F 65% 29.91 in 10.0 mi WNW 13.8 mph - N/A   Partly Cloudy
8:55 AM 35.6 °F 27.1 °F 24.8 °F 65% 29.92 in 10.0 mi WNW 12.7 mph - N/A   Clear
9:15 AM 37.4 °F 29.3 °F 26.6 °F 65% 29.94 in 10.0 mi WNW 12.7 mph - N/A   Clear
9:35 AM 39.2 °F 30.5 °F 26.6 °F 61% 29.95 in 10.0 mi WNW 16.1 mph - N/A   Clear
9:55 AM 39.2 °F 30.5 °F 28.4 °F 65% 29.96 in 10.0 mi WNW 16.1 mph 19.6 mph N/A   Clear
10:15 AM 42.8 °F 35.1 °F 28.4 °F 57% 29.97 in 10.0 mi WNW 16.1 mph 23.0 mph N/A   Clear
10:35 AM 44.6 °F 36.9 °F 28.4 °F 53% 29.97 in 10.0 mi WNW 18.4 mph 25.3 mph N/A   Clear
10:55 AM 44.6 °F 37.2 °F 28.4 °F 53% 29.98 in 10.0 mi NW 17.3 mph - N/A   Clear
11:15 AM 46.4 °F 39.0 °F 28.4 °F 50% 29.97 in 10.0 mi NW 19.6 mph 23.0 mph N/A   Clear
11:35 AM 48.2 °F - 28.4 °F 46% 29.96 in 10.0 mi NNW 17.3 mph - N/A   Clear
11:55 AM 48.2 °F - 28.4 °F 46% 29.95 in 10.0 mi NNW 15.0 mph - N/A   Clear
12:15 PM 50.0 °F - 26.6 °F 40% 29.95 in 10.0 mi NW 16.1 mph - N/A   Clear
12:35 PM 51.8 °F - 26.6 °F 38% 29.95 in 10.0 mi WNW 15.0 mph 19.6 mph N/A   Clear
12:55 PM 51.8 °F - 26.6 °F 38% 29.94 in 10.0 mi NW 9.2 mph 17.3 mph N/A   Clear
1:15 PM 53.6 °F - 24.8 °F 33% 29.93 in 10.0 mi NW 12.7 mph 19.6 mph N/A   Clear
1:35 PM 53.6 °F - 24.8 °F 33% 29.93 in 10.0 mi WNW 12.7 mph 18.4 mph N/A   Clear
1:55 PM 53.6 °F - 24.8 °F 33% 29.92 in 10.0 mi WNW 12.7 mph 19.6 mph N/A   Clear
2:15 PM 53.6 °F - 23.0 °F 30% 29.91 in 10.0 mi WNW 13.8 mph 19.6 mph N/A   Clear
2:35 PM 55.4 °F - 23.0 °F 29% 29.91 in 10.0 mi WNW 16.1 mph - N/A   Clear
2:55 PM 55.4 °F - 21.2 °F 26% 29.91 in 10.0 mi West 16.1 mph - N/A   Clear
3:15 PM 55.4 °F - 21.2 °F 26% 29.90 in 10.0 mi West 15.0 mph - N/A   Clear
3:35 PM 55.4 °F - 21.2 °F 26% 29.90 in 10.0 mi West 15.0 mph - N/A   Clear
3:55 PM 55.4 °F - 23.0 °F 29% 29.89 in 10.0 mi West 16.1 mph - N/A   Clear
4:15 PM 55.4 °F - 23.0 °F 29% 29.89 in 10.0 mi West 10.4 mph - N/A   Clear
4:35 PM 53.6 °F - 23.0 °F 30% 29.89 in 10.0 mi West 9.2 mph - N/A   Clear
4:55 PM 53.6 °F - 21.2 °F 28% 29.88 in 10.0 mi WSW 9.2 mph - N/A   Clear
5:15 PM 50.0 °F - 21.2 °F 32% 29.88 in 10.0 mi SW 10.4 mph - N/A   Clear
5:35 PM 46.4 °F 42.4 °F 21.2 °F 37% 29.89 in 10.0 mi SW 8.1 mph - N/A   Clear
5:55 PM 42.8 °F 38.0 °F 21.2 °F 42% 29.88 in 10.0 mi SSW 8.1 mph - N/A   Clear
6:15 PM 42.8 °F 38.0 °F 21.2 °F 42% 29.87 in 10.0 mi SSW 8.1 mph - N/A   Clear
6:35 PM 39.2 °F 32.5 °F 19.4 °F 45% 29.86 in 10.0 mi SSW 10.4 mph - N/A   Clear
6:55 PM 39.2 °F 33.0 °F 21.2 °F 49% 29.86 in 10.0 mi SSW 9.2 mph - N/A   Clear
7:15 PM 37.4 °F 30.3 °F 21.2 °F 52% 29.85 in 10.0 mi SSW 10.4 mph - N/A   Clear
7:35 PM 37.4 °F 29.8 °F 21.2 °F 52% 29.84 in 10.0 mi SSW 11.5 mph - N/A   Clear
7:55 PM 35.6 °F 28.6 °F 21.2 °F 56% 29.83 in 10.0 mi SSW 9.2 mph - N/A   Clear
8:15 PM 35.6 °F 28.0 °F 21.2 °F 56% 29.83 in 10.0 mi SSW 10.4 mph - N/A   Clear
8:35 PM 35.6 °F 27.1 °F 21.2 °F 56% 29.83 in 10.0 mi SSW 12.7 mph - N/A   Clear
8:55 PM 33.8 °F 27.0 °F 19.4 °F 56% 29.82 in 10.0 mi SSW 8.1 mph - N/A   Clear
9:15 PM 35.6 °F 30.7 °F 21.2 °F 56% 29.81 in 10.0 mi South 5.8 mph - N/A   Clear
9:35 PM 37.4 °F 32.1 °F 21.2 °F 52% 29.81 in 10.0 mi WSW 6.9 mph - N/A   Clear
9:55 PM 37.4 °F 32.8 °F 21.2 °F 52% 29.81 in 10.0 mi WSW 5.8 mph - N/A   Clear
10:15 PM 37.4 °F 31.4 °F 21.2 °F 52% 29.80 in 10.0 mi SW 8.1 mph - N/A   Clear
10:35 PM 37.4 °F 33.8 °F 21.2 °F 52% 29.79 in 10.0 mi SW 4.6 mph - N/A   Clear
10:55 PM 37.4 °F 33.8 °F 21.2 °F 52% 29.78 in 10.0 mi South 4.6 mph - N/A   Clear
11:15 PM 37.4 °F 32.8 °F 21.2 °F 52% 29.76 in 10.0 mi South 5.8 mph - N/A   Clear
11:35 PM 37.4 °F 32.8 °F 21.2 °F 52% 29.75 in 10.0 mi South 5.8 mph - N/A   Clear
11:55 PM 37.4 °F 33.8 °F 21.2 °F 52% 29.73 in 10.0 mi South 4.6 mph - N/A   Clear